Temperature
30 29 28 28 30 30 30 30 29 28 30 30 29 29 28 27 26 25 23 22 21 20 20 19 19 19 18 18 18 18 18 18 18 18 17 17 17 17 17 16 16 16 16 16
29 28 29 30 30 30 30 29 29 29 29 29 29 28 27 26 25 24 23 22 21 20 20 19 19 19 18 18 18 17 17 17 17 17 17 17 17 17 17 16 16 16 16 16
28 28 30 30 30 29 29 28 28 27 28 29 28 25 24 24 24 23 23 23 22 21 20 20 19 19 18 18 18 18 17 17 17 17 17 16 16 16 16 16 16 16 15 15
28 29 29 29 29 29 28 29 29 28 28 26 25 23 21 21 22 23 23 23 22 22 21 20 20 19 18 18 18 17 17 16 16 16 16 16 16 16 16 16 15 15 15 15
28 29 29 29 29 29 28 29 28 27 26 25 22 21 19 19 20 22 23 23 22 22 21 20 20 19 19 18 18 18 17 16 16 15 15 15 15 15 15 15 15 15 15 15
28 29 30 30 31 31 30 29 27 24 23 21 21 20 19 19 20 22 23 23 23 22 21 21 20 19 19 19 18 18 17 16 16 15 15 14 14 14 14 14 14 14 14 14
26 28 30 31 30 30 30 28 24 21 19 19 21 20 20 21 23 23 24 24 23 23 22 21 20 20 19 19 18 18 17 16 16 15 14 14 14 14 14 14 14 14 14 14
24 26 29 30 30 29 29 28 25 23 22 21 20 20 20 22 23 24 24 24 24 23 22 21 21 20 20 19 18 17 17 16 15 15 14 14 14 13 13 13 13 13 13 13
26 27 30 31 31 30 29 29 30 28 27 25 21 20 20 22 24 25 25 24 24 23 22 22 21 20 19 19 18 17 16 16 15 14 14 14 13 13 13 13 13 13 13 13
29 28 29 30 31 31 31 30 29 27 26 25 23 21 20 22 24 25 25 24 24 23 22 21 21 20 19 18 17 16 16 15 14 14 14 13 13 13 13 12 12 12 12 12
30 28 29 29 28 28 29 29 28 28 27 26 25 22 24 24 24 24 25 24 23 22 21 21 20 19 18 17 16 16 15 14 14 13 13 13 12 12 12 12 12 11 11 11
30 29 27 24 24 27 29 28 28 26 26 27 26 23 26 26 26 25 24 23 22 21 21 20 19 18 17 16 15 15 14 13 13 13 12 12 12 11 11 11 11 11 11 11
29 27 26 23 21 24 27 28 28 28 27 26 26 25 27 26 26 25 24 23 22 21 20 19 18 17 16 15 14 14 13 13 12 12 11 11 11 10 10 10 10 10 10 10
28 28 27 26 26 27 28 28 29 28 26 26 26 26 26 25 25 24 23 22 21 20 19 18 17 16 15 14 14 13 12 12 11 11 10 10 10 10 9 9 9 9 9 9
29 28 28 28 29 29 29 29 29 28 27 26 26 26 26 25 24 23 22 21 21 20 19 17 16 15 14 14 13 12 12 11 11 10 10 9 9 9 9 9 8 8 9 9
29 27 27 28 29 29 29 29 28 28 27 27 27 26 26 25 24 23 22 21 20 19 18 16 15 14 14 13 12 12 11 10 10 10 9 9 9 8 8 8 8 8 8 8
28 27 26 27 28 28 27 28 28 27 28 27 26 25 25 24 23 22 21 20 19 18 17 16 15 14 13 12 12 11 10 10 9 9 9 8 8 8 8 7 7 7 7 8
27 26 26 27 27 25 27 29 28 27 27 27 26 25 25 24 23 22 20 18 18 17 16 15 14 13 13 12 11 10 10 9 9 9 8 8 7 7 7 7 7 7 7 7
28 26 26 26 26 26 27 28 27 26 26 26 25 24 24 23 22 21 19 18 17 16 15 14 13 13 12 11 10 10 9 9 8 8 8 7 7 7 7 7 7 7 7 7
28 27 26 26 25 25 27 28 27 26 25 25 25 24 23 22 21 21 19 18 16 15 14 13 13 12 11 11 10 9 9 9 8 8 7 7 7 7 7 7 7 7 7 7
27 26 26 26 26 26 27 27 27 25 23 24 24 23 22 21 20 19 18 17 16 15 14 13 12 12 11 10 9 9 8 8 8 7 7 7 7 7 7 7 7 7 7 7
27 27 26 26 25 25 27 27 26 24 23 23 23 22 22 21 20 19 18 16 15 14 14 13 12 11 11 10 9 9 8 8 7 7 7 7 7 7 7 7 7 7 7 7
28 28 27 26 26 26 26 26 25 24 23 23 23 22 21 20 19 18 17 16 15 14 13 12 12 11 10 10 9 8 8 8 7 7 7 7 7 7 7 7 7 7 7 7
29 29 27 26 27 27 27 26 25 24 23 23 22 21 20 19 19 17 16 15 14 13 13 12 11 11 10 9 9 8 8 8 7 7 7 7 7 7 7 7 7 7 7 7
28 28 27 27 27 27 27 26 25 24 23 22 22 21 20 19 18 17 16 15 14 13 12 12 11 10 10 9 9 8 8 7 7 7 7 7 7 7 8 8 8 7 7 7
29 28 27 27 27 27 26 25 24 24 23 22 21 20 19 18 17 16 15 14 13 13 12 11 11 10 9 9 8 8 8 7 7 7 7 7 7 8 8 8 8 8 8 7
Wind_Speed
11 10 10 13 13 12 12 10 6 5 5 6 6 6 9 8 6 9 10 10 9 8 7 6 6 6 7 6 6 5 5 4 3 3 4 3 3 3 3 2 1 2 3 4
9 10 14 15 12 11 10 10 7 3 5 7 6 4 6 8 5 7 10 10 9 8 7 6 5 5 6 5 4 4 4 4 4 3 3 3 4 4 2 1 1 2 2 3
6 9 12 13 11 11 9 10 8 9 9 9 5 1 5 7 5 5 7 9 9 8 7 6 5 5 5 4 3 4 4 3 4 5 4 5 3 3 2 2 1 1 2 2
6 9 11 10 8 10 9 9 10 10 8 5 2 2 3 2 2 3 5 8 8 7 7 6 5 4 2 2 2 3 2 2 3 5 5 7 6 5 5 3 2 2 2 2
9 10 9 8 7 8 8 8 8 10 10 7 4 1 0 3 4 6 7 8 8 7 6 4 4 2 1 1 0 1 2 0 2 3 5 6 6 6 6 6 5 4 4 3
15 13 9 7 8 9 9 6 7 10 8 7 6 2 2 4 7 7 7 8 7 6 5 4 2 2 1 2 2 2 1 1 2 4 5 6 7 7 8 8 8 6 4 4
11 12 10 8 7 8 10 7 5 5 3 6 6 3 3 4 6 7 7 6 5 4 3 2 1 2 3 3 2 2 3 3 3 5 6 7 7 8 9 9 8 6 5 4
5 6 6 5 7 7 9 7 4 6 6 4 2 1 2 3 3 5 5 4 2 1 1 1 2 2 3 4 4 5 5 5 5 5 6 7 8 7 7 8 7 8 7 6
5 7 8 6 6 6 8 9 10 9 9 2 4 3 2 2 2 2 3 3 4 4 5 5 6 6 6 7 7 7 7 7 6 7 7 8 8 8 8 8 8 8 7 8
6 9 8 6 7 4 8 10 8 7 8 8 5 4 3 2 2 5 6 6 7 7 8 8 8 8 8 8 7 8 7 7 7 8 8 10 8 8 9 9 9 9 9 8
8 8 9 8 8 11 8 8 8 8 8 9 6 5 4 2 3 5 7 8 9 9 10 10 10 10 10 10 10 9 9 9 8 8 8 8 8 8 8 8 9 8 8 9
9 7 7 10 16 15 8 7 8 8 8 8 7 5 3 3 6 7 9 9 10 10 10 11 11 11 11 11 10 10 10 10 9 9 9 9 8 9 9 10 9 9 9 9
8 6 6 4 7 10 6 4 6 7 7 7 8 4 2 7 10 11 11 10 10 10 10 11 10 10 10 11 10 10 10 10 10 11 11 10 10 10 10 10 10 10 10 10
4 7 8 7 4 3 4 5 5 6 6 8 9 10 9 11 12 12 11 11 11 10 10 10 9 9 9 9 10 11 11 11 11 11 12 11 11 10 11 11 11 10 10 10
4 8 10 10 8 6 5 6 6 5 7 8 10 10 11 11 11 11 12 12 11 11 11 11 10 9 10 11 10 11 12 12 11 12 12 12 12 11 11 11 11 11 11 13
3 7 12 12 10 9 9 5 5 6 7 8 10 9 11 11 11 12 12 11 10 11 13 13 13 12 11 11 12 12 12 12 12 12 13 12 12 12 12 12 12 12 11 11
6 7 11 11 10 11 8 3 2 5 7 8 9 8 11 12 12 11 10 9 10 12 13 13 13 12 11 11 11 12 12 12 12 13 14 13 13 13 13 15 13 13 12 11
6 7 7 11 11 10 3 1 2 4 6 7 7 8 10 11 11 8 9 9 10 11 12 13 12 13 12 11 12 12 14 13 13 13 13 13 14 15 14 14 14 13 11 11
6 6 8 10 11 8 1 2 1 4 6 5 6 8 10 11 12 5 11 10 10 11 11 11 12 12 12 12 13 13 14 14 15 15 14 15 15 16 15 15 14 13 11 12
7 7 8 10 13 14 5 5 3 3 0 7 7 8 9 10 9 8 11 10 10 10 10 11 11 12 12 12 12 13 15 15 15 15 15 16 15 15 15 15 14 12 10 11
8 9 10 11 13 6 6 5 2 5 3 5 7 7 8 7 7 9 10 10 10 10 11 11 11 11 10 12 12 13 14 15 15 15 15 15 15 14 14 12 11 11 10 10
7 7 8 8 10 3 3 1 4 4 3 4 5 6 7 7 8 9 9 10 10 11 11 12 10 10 10 11 12 13 14 14 15 15 15 15 15 14 13 11 11 10 9 10
5 5 4 3 3 3 1 2 4 3 2 3 4 5 6 7 8 9 9 9 10 11 11 11 12 11 11 11 12 14 14 14 15 15 15 15 15 13 12 10 11 9 8 7
5 2 4 6 6 5 4 1 2 2 1 3 3 4 5 6 7 8 8 9 9 10 10 11 12 12 12 12 12 12 12 13 14 15 15 13 13 13 11 9 8 8 7 7
10 8 9 9 8 8 6 3 3 2 2 2 2 3 4 5 6 7 7 8 9 9 10 10 11 11 12 13 13 13 13 13 15 15 14 13 12 11 10 9 7 8 5 4
12 9 7 6 3 5 4 2 3 3 3 3 2 3 3 4 5 6 7 7 8 9 10 10 11 12 12 13 12 12 12 13 14 13 13 12 11 10 9 9 8 6 6 4
Wind_Direction
244 246 262 266 268 268 277 275 266 254 242 248 231 177 140 125 122 122 116 112 105 101 102 95 89 84 83 76 71 64 52 43 18 19 344 336 324 305 298 295 303 302 304 310
262 258 268 273 281 288 285 297 301 288 287 274 245 158 114 100 104 112 120 123 124 123 114 107 106 103 95 87 82 84 57 34 16 18 321 289 300 297 279 309 315 305 310 309
267 276 280 283 300 304 306 307 305 284 256 255 261 113 87 85 90 107 124 127 132 134 130 126 113 96 95 94 77 64 52 27 11 344 326 332 311 297 315 322 299 314 284 275
280 264 270 284 302 302 304 297 291 297 295 292 289 214 117 113 159 181 148 136 132 130 131 130 126 116 109 119 130 123 101 29 352 332 340 333 320 321 318 313 308 305 279 271
296 282 281 290 286 284 281 281 305 332 333 318 3 25 106 175 209 195 168 148 137 138 137 137 130 134 96 323 349 138 135 123 323 317 307 310 315 320 320 324 311 298 273 247
304 297 291 289 288 282 288 282 342 12 2 326 302 306 187 204 203 184 164 143 142 141 145 145 151 162 242 274 286 306 316 256 281 293 301 301 303 305 305 300 292 285 273 251
302 298 296 300 312 330 321 319 337 351 355 267 264 277 154 198 174 162 152 136 134 140 149 147 205 234 254 279 308 328 328 329 323 312 310 309 306 299 287 281 285 288 287 283
286 295 296 318 324 317 304 302 303 299 280 253 177 175 79 109 124 146 130 114 107 87 75 353 303 308 326 336 355 351 349 337 321 305 296 290 287 283 283 296 310 305 298 290
289 306 306 314 299 311 315 324 326 308 313 358 133 128 124 214 165 98 73 63 46 18 7 354 350 356 358 358 0 353 344 336 324 307 299 284 275 277 284 290 284 279 278 285
296 307 311 299 290 301 320 332 343 342 337 337 95 109 148 174 28 27 10 19 22 11 2 1 0 359 2 357 352 347 339 330 326 322 312 307 309 302 293 286 282 280 281 280
318 309 315 330 353 346 344 353 353 343 347 335 0 90 116 81 34 17 9 17 12 3 356 352 353 359 358 352 343 341 337 333 328 320 312 307 304 302 300 292 287 285 280 276
337 322 342 14 356 335 337 352 353 350 341 331 343 103 98 76 57 31 15 9 6 356 349 350 352 355 350 343 339 336 334 327 323 321 317 312 309 309 306 303 301 299 291 284
343 327 319 5 355 300 297 338 351 343 319 337 349 72 80 57 36 22 11 2 353 352 355 355 359 353 343 339 336 330 327 324 324 323 320 318 316 314 309 305 299 294 292 287
300 294 307 313 295 275 300 325 345 346 342 341 357 358 24 33 15 6 2 354 346 352 358 357 358 347 343 336 332 329 326 327 325 325 320 315 311 307 304 303 302 299 295 291
305 307 309 308 308 315 322 320 330 340 341 332 339 346 25 23 8 1 353 345 342 350 353 352 348 343 339 335 332 328 327 326 324 320 316 313 310 309 307 305 302 297 292 290
299 306 307 308 311 305 297 293 312 328 328 325 328 348 26 11 0 351 343 341 348 351 348 345 341 339 338 334 331 331 327 325 324 320 318 315 315 313 310 306 301 298 295 292
295 293 299 301 298 296 306 294 290 324 330 330 332 358 9 355 349 342 347 6 360 350 345 343 340 337 336 335 336 330 328 326 323 320 317 317 315 312 308 305 303 298 295 292
273 296 294 293 297 296 305 30 19 342 325 325 342 10 2 350 342 357 41 24 0 351 345 341 336 334 334 336 334 331 328 324 322 320 319 319 316 311 306 303 300 296 292 288
205 256 283 292 295 296 238 186 56 332 322 3 16 359 349 346 326 56 41 19 6 354 344 337 334 333 336 336 336 330 325 325 324 323 322 320 316 310 307 304 300 297 294 290
191 212 255 277 292 299 308 119 100 309 301 41 17 359 345 341 330 351 9 6 1 350 342 337 336 336 336 336 335 328 326 327 326 325 323 318 313 309 306 302 299 297 293 289
220 225 246 273 283 302 89 118 275 311 56 16 359 348 343 356 331 335 351 359 353 345 339 341 340 338 338 337 335 328 326 328 328 325 320 317 314 309 304 302 301 298 296 293
254 262 261 270 283 318 98 340 9 63 47 346 346 344 348 338 333 343 352 352 346 341 342 342 337 337 338 339 336 328 328 329 327 323 320 317 315 313 313 311 306 304 301 299
275 296 313 321 312 168 283 4 84 97 342 335 340 346 340 334 337 343 348 346 341 341 341 338 335 335 337 339 337 329 329 329 327 324 321 319 318 315 313 313 311 310 307 303
311 7 299 295 291 270 272 263 152 159 273 314 324 330 338 334 335 343 344 341 341 340 338 337 334 335 337 338 336 330 329 330 328 324 322 320 319 319 321 317 314 314 318 320
306 284 274 273 274 273 267 249 223 195 205 270 305 332 340 334 334 341 339 342 340 335 336 336 334 334 335 336 334 334 336 334 329 324 322 322 321 319 319 318 314 313 323 317
283 288 287 293 324 296 285 218 202 208 227 248 288 312 324 334 334 335 337 340 336 334 334 335 335 336 336 335 334 336 338 335 329 325 325 323 322 324 323 322 321 309 295 277
Height
1477 1480 1481 1474 1467 1466 1464 1465 1468 1466 1459 1459 1461 1463 1467 1472 1476 1480 1486 1491 1495 1497 1499 1500 1500 1501 1501 1501 1502 1502 1503 1503 1502 1502 1502 1501 1501 1500 1499 1498 1496 1495 1493 1492
1476 1477 1471 1466 1463 1462 1463 1467 1467 1463 1459 1461 1462 1465 1470 1473 1479 1483 1487 1491 1495 1498 1500 1500 1501 1502 1502 1502 1502 1502 1502 1502 1502 1501 1500 1500 1499 1498 1497 1495 1494 1492 1491 1489
1479 1474 1466 1464 1464 1465 1465 1468 1468 1469 1460 1458 1465 1478 1481 1481 1485 1488 1491 1492 1495 1497 1499 1501 1502 1502 1503 1503 1503 1503 1502 1501 1501 1500 1499 1499 1497 1496 1495 1494 1492 1490 1489 1487
1473 1468 1467 1465 1465 1464 1469 1461 1460 1463 1468 1476 1477 1496 1495 1491 1490 1490 1492 1493 1495 1497 1499 1500 1501 1502 1503 1503 1502 1502 1501 1500 1499 1499 1498 1497 1496 1495 1493 1492 1490 1488 1486 1485
1474 1467 1466 1465 1463 1462 1463 1458 1461 1466 1474 1481 1490 1500 1506 1498 1495 1492 1492 1493 1495 1497 1498 1500 1500 1501 1502 1502 1502 1501 1500 1499 1498 1497 1496 1495 1493 1492 1490 1489 1487 1485 1484 1482
1474 1467 1463 1460 1456 1456 1455 1459 1467 1477 1488 1504 1500 1508 1512 1502 1496 1491 1491 1493 1495 1496 1497 1498 1499 1500 1500 1500 1500 1499 1498 1497 1496 1494 1493 1492 1490 1488 1487 1485 1484 1482 1481 1480
1484 1470 1461 1456 1458 1456 1457 1469 1493 1507 1516 1513 1496 1505 1505 1494 1488 1488 1490 1491 1493 1495 1495 1496 1497 1498 1498 1498 1498 1497 1496 1494 1493 1492 1490 1489 1487 1485 1483 1482 1480 1479 1478 1477
1494 1485 1465 1458 1459 1462 1459 1464 1487 1502 1504 1500 1501 1508 1499 1489 1488 1488 1489 1490 1491 1492 1493 1495 1495 1495 1496 1496 1495 1494 1493 1492 1490 1488 1486 1485 1483 1481 1479 1478 1476 1475 1474 1473
1485 1480 1460 1456 1455 1457 1460 1459 1455 1467 1469 1484 1501 1502 1497 1489 1487 1486 1486 1487 1489 1491 1492 1493 1493 1494 1494 1494 1493 1492 1490 1488 1486 1484 1482 1481 1479 1477 1475 1473 1471 1470 1469 1468
1467 1476 1463 1456 1453 1452 1454 1454 1459 1470 1484 1488 1494 1502 1503 1492 1487 1484 1485 1487 1488 1490 1491 1492 1492 1492 1492 1492 1491 1489 1487 1485 1483 1481 1478 1477 1474 1472 1470 1468 1466 1465 1463 1462
1462 1472 1468 1463 1466 1467 1461 1462 1464 1467 1472 1485 1493 1504 1484 1484 1484 1484 1485 1486 1488 1490 1491 1491 1491 1491 1490 1489 1488 1486 1484 1482 1479 1476 1474 1471 1469 1466 1464 1462 1460 1458 1457 1456
1464 1468 1479 1486 1478 1470 1465 1466 1468 1481 1483 1476 1482 1498 1476 1478 1480 1482 1484 1487 1488 1490 1491 1491 1490 1489 1488 1487 1485 1483 1480 1478 1475 1472 1469 1466 1463 1460 1458 1456 1453 1451 1450 1448
1472 1477 1488 1497 1500 1483 1471 1465 1465 1469 1474 1479 1486 1490 1473 1476 1479 1482 1485 1487 1489 1489 1489 1489 1489 1488 1486 1485 1482 1480 1477 1474 1470 1467 1464 1461 1458 1455 1452 1449 1447 1445 1442 1441
1474 1476 1484 1494 1488 1475 1472 1467 1465 1472 1480 1483 1482 1480 1474 1477 1481 1483 1485 1487 1488 1488 1488 1488 1487 1486 1484 1482 1479 1476 1473 1470 1466 1462 1459 1455 1452 1449 1445 1442 1440 1437 1435 1433
1472 1476 1473 1469 1464 1464 1466 1467 1466 1471 1475 1481 1480 1478 1478 1480 1482 1484 1486 1486 1487 1487 1487 1487 1485 1483 1481 1478 1475 1472 1469 1465 1461 1457 1454 1450 1446 1443 1439 1436 1433 1430 1428 1426
1471 1479 1476 1473 1466 1464 1465 1464 1467 1470 1472 1474 1476 1478 1477 1481 1483 1485 1485 1485 1486 1486 1486 1485 1483 1481 1478 1475 1472 1468 1465 1461 1457 1453 1448 1444 1440 1436 1433 1429 1426 1423 1420 1418
1471 1476 1481 1480 1470 1468 1474 1465 1467 1470 1469 1473 1479 1480 1479 1481 1483 1484 1484 1485 1486 1486 1485 1483 1481 1478 1475 1472 1468 1464 1461 1457 1452 1448 1444 1439 1435 1430 1426 1423 1419 1416 1413 1411
1474 1478 1479 1477 1477 1491 1473 1460 1463 1469 1470 1470 1473 1477 1480 1483 1483 1483 1484 1485 1485 1485 1483 1481 1478 1475 1472 1469 1465 1461 1457 1453 1448 1443 1439 1434 1429 1425 1420 1416 1413 1409 1406 1403
1468 1476 1480 1481 1481 1477 1468 1464 1467 1472 1474 1472 1476 1480 1481 1482 1482 1482 1484 1484 1484 1483 1481 1479 1476 1473 1469 1465 1461 1457 1453 1448 1444 1439 1434 1429 1424 1419 1414 1410 1406 1403 1400 1396
1465 1471 1478 1478 1485 1486 1469 1462 1466 1471 1477 1477 1478 1481 1482 1482 1483 1482 1484 1483 1482 1481 1479 1476 1473 1470 1466 1462 1458 1453 1449 1445 1440 1435 1429 1424 1419 1414 1409 1405 1401 1397 1394 1390
1470 1472 1476 1477 1479 1470 1463 1464 1467 1478 1484 1479 1479 1481 1481 1483 1484 1484 1482 1482 1480 1479 1476 1473 1470 1467 1463 1459 1454 1450 1446 1441 1436 1430 1425 1419 1415 1410 1405 1401 1397 1393 1389 1385
1465 1469 1471 1472 1481 1479 1464 1464 1470 1478 1478 1478 1479 1480 1481 1482 1482 1482 1481 1480 1478 1476 1474 1471 1467 1464 1460 1456 1451 1447 1442 1437 1432 1426 1421 1416 1411 1406 1402 1397 1392 1389 1385 1381
1457 1458 1462 1467 1472 1468 1466 1467 1471 1474 1476 1477 1478 1480 1480 1481 1481 1480 1479 1478 1476 1474 1471 1468 1465 1461 1457 1453 1449 1444 1439 1433 1428 1423 1417 1412 1407 1403 1399 1394 1390 1386 1382 1379
1453 1454 1459 1463 1460 1461 1463 1465 1469 1472 1474 1476 1477 1478 1478 1479 1479 1478 1477 1476 1474 1471 1469 1466 1462 1458 1454 1450 1446 1441 1436 1430 1425 1420 1414 1410 1405 1400 1396 1392 1387 1383 1380 1376
1456 1456 1457 1459 1458 1459 1461 1463 1466 1469 1471 1474 1475 1476 1477 1477 1477 1476 1475 1473 1471 1469 1466 1463 1460 1456 1452 1447 1443 1438 1433 1428 1422 1417 1412 1407 1403 1398 1393 1389 1386 1382 1378 1375
1452 1451 1453 1456 1455 1458 1459 1462 1464 1467 1469 1471 1473 1474 1475 1475 1475 1474 1473 1471 1469 1467 1464 1461 1457 1453 1449 1445 1440 1435 1431 1426 1420 1415 1410 1406 1401 1397 1392 1388 1383 1380 1377 1373